📊 Raw Sensor Data

Showing records 41726 to 41750 of 84,988 total

ID Distance (ft) Battery V Battery A Int Temp (°F) Int Humid (%) Ext Temp (°F) Solar V RSSI SNR Time Stamp
43275 15.6 4.02 0 60 42 63 5.10 -67 8 06/12/2025 07:30 AM
43274 15.6 4.04 12 58 42 60 4.50 -68 8 06/12/2025 07:15 AM
43273 15.6 4.06 0 56 41 60 4.50 -68 8 06/12/2025 07:00 AM
43272 15.5 4.04 8 54 41 61 4.50 -66 8 06/12/2025 06:45 AM
43271 15.4 3.97 0 52 42 58 4.50 -67 8 06/12/2025 06:30 AM
43270 15.4 3.95 0 50 42 55 4.50 -67 8 06/12/2025 06:15 AM
43269 15.3 4.01 -6 49 42 52 4.50 -67 8 06/12/2025 06:00 AM
43268 15.3 3.93 -10 48 43 50 4.50 -68 8 06/12/2025 05:45 AM
43267 15.4 3.95 -35 48 43 50 0.80 -67 8 06/12/2025 05:30 AM
43266 15.4 3.95 -5 49 43 50 0.00 -68 8 06/12/2025 05:15 AM
43265 15.4 4.01 -5 49 43 50 0.00 -66 8 06/12/2025 05:00 AM
43264 15.4 3.95 -5 49 43 51 0.00 -67 8 06/12/2025 04:45 AM
43263 15.4 4.01 -5 50 43 51 0.00 -66 8 06/12/2025 04:30 AM
43262 15.4 3.95 -5 50 43 51 0.00 -68 8 06/12/2025 04:15 AM
43261 15.4 4.01 -5 50 43 51 0.00 -66 8 06/12/2025 04:00 AM
43260 15.4 3.95 -5 50 43 52 0.00 -66 8 06/12/2025 03:45 AM
43259 15.4 4.02 -5 51 43 52 0.00 -67 8 06/12/2025 03:30 AM
43258 15.4 3.95 -5 51 43 52 0.00 -67 8 06/12/2025 03:15 AM
43257 15.4 4.02 -5 51 43 52 0.00 -66 8 06/12/2025 03:00 AM
43256 15.4 3.96 -5 51 43 53 0.00 -68 8 06/12/2025 02:45 AM
43255 15.4 3.95 -5 51 43 53 0.00 -68 8 06/12/2025 02:30 AM
43254 15.4 3.95 -5 51 43 53 0.00 -68 8 06/12/2025 02:15 AM
43253 15.4 3.96 -5 52 44 53 0.00 -69 8 06/12/2025 02:00 AM
43252 15.4 3.95 -5 52 44 53 0.00 -68 8 06/12/2025 01:45 AM
43251 15.4 4.02 -5 52 44 53 0.00 -68 8 06/12/2025 01:30 AM